OPS 4682 DEB, 14515

Orbit data source: Space-Track

OPS 4682 DEB, 14515 is space debris in LEO originally from a launch on Sat, 03 Apr 1965 UTC launched from the Air Force Western Test Range (AFWTR). Debris objects in space refer to the collection of defunct objects orbiting the Earth. Examples of debris include non-operational satellites, rocket bodies, and fragments generated from explosions, collisions, or faulty payload assembly.

Loading next visibility...
Identifier
14515, 1965-027M
Orbit
LEO
Country
Flag of USUS
Related business
Manufacturer
Unknown
Mission
Spacecraft
Bus & Motor
Unknown
Mass
Unknown
Launch date (UTC)
1965-04-03 (61 years ago)
Launch vehicle
Unknown
Launch site
Air Force Western Test Range (AFWTR)
Object type
Payload
Rocket body
Debris
Shape & HBR
Unknown shape, 0.1 m
Radar Cross Section
Medium (>0.1 m² and <1 m²)

Expand to show TLE details & history
Last TLE update: 10 hours ago

TLE from 10 hours ago
0 OPS 4682 DEB
1 14515U 65027M   26235.60820339  .00000425  00000-0  14394-2 0  9999
2 14515  90.2490   9.6193 0028313 243.6443 116.1770 12.97420899593059
Epoch: 2026-08-23T14:35Z
TLE epoch observation values (Epoch: 2026-08-23T14:35:48.772Z)
Latitude
-0.00003°
Longitude
178.76427°
Altitude
1,284.695 km
Speed
7.209 km/s
True Right ascension
00h 38m 28s
True Declination
0° 00' 00"
Sunlit
Object was in full shadow at epoch
Visualization orbit readout
Latitude
Unknown
Longitude
Unknown
Altitude
Unknown
Speed
Unknown
Apparent Right ascension
Unknown
Apparent Declination
Unknown
Sunlit
N/A
Visualization observer readout
Local Sidereal Time
15:53:55
Azimuth
Unknown
Elevation
Unknown
Doppler factor
Unknown
Orbital elements
Apogee altitude
1,290.992 km
Perigee altitude
1,247.687 km
Semi-major axis
7,647.476 km
Eccentricity
0.00283
Inclination
90.249°
RAAN
9.6193°
Arg. of periapsis
243.6443°
True anomaly
116.46771°
Mean anomaly
116.177°
Eccentric anomaly
116.3224°
Mean motion
3.24538 °/min
Orbital period
110.93 mins
BSTAR
0.0014394
Loading maneuver chart data...
Computing Atmospheric mass density...
Loading historical data...
Loading historical data...
Loading historical data...
Loading historical data...
Loading historical data...
Loading historical data...
Loading historical data...

Documentation

Showing up to 5 results
|